| time (UTC) | temp F | wind direction | speed MPH | gust MPH | rain 1hr in | rain 24hr in | rain mn in | humidity % | barometer mb |
| 20260507040045 | 57 | 0 | 1.0 | 8.0 | 0.00 | 0.15 | 0.00 | 91 | 1006.2 |
| 20260507034541 | 57 | 261 | 1.0 | 9.0 | 0.00 | 0.15 | 0.15 | 92 | 1006.5 |
| 20260507033042 | 58 | 279 | 1.0 | 8.0 | 0.00 | 0.15 | 0.15 | 94 | 1005.8 |
| 20260507031537 | 58 | 275 | 1.0 | 7.0 | 0.00 | 0.15 | 0.15 | 94 | 1005.7 |
| 20260507030038 | 59 | 281 | 1.0 | 3.0 | 0.00 | 0.15 | 0.15 | 95 | 1005.6 |
| 20260507024546 | 59 | 271 | 1.0 | 5.0 | 0.00 | 0.15 | 0.15 | 94 | 1005.2 |
| 20260507023040 | 58 | 157 | 1.0 | 9.0 | 0.00 | 0.15 | 0.15 | 95 | 1005.3 |
| 20260507021550 | 58 | 0 | 1.0 | 9.0 | 0.00 | 0.15 | 0.15 | 94 | 1005.4 |
| 20260507020040 | 58 | 0 | 0.0 | 5.0 | 0.00 | 0.15 | 0.15 | 94 | 1005.3 |
| 20260507014537 | 58 | 223 | 1.0 | 7.0 | 0.00 | 0.15 | 0.15 | 95 | 1005.3 |
| 20260507013038 | 58 | 0 | 1.0 | 5.0 | 0.00 | 0.15 | 0.15 | 95 | 1005.3 |
| 20260507011545 | 58 | 174 | 1.0 | 7.0 | 0.00 | 0.15 | 0.15 | 95 | 1005.3 |
| 20260507010045 | 58 | 198 | 1.0 | 6.0 | 0.00 | 0.15 | 0.15 | 95 | 1005.4 |
| 20260507004540 | 58 | 208 | 0.0 | 4.0 | 0.00 | 0.15 | 0.15 | 95 | 1005.5 |
| 20260507003040 | 58 | 159 | 0.0 | 7.0 | 0.01 | 0.15 | 0.15 | 95 | 1005.4 |
| 20260507001542 | 58 | 129 | 2.0 | 9.0 | 0.01 | 0.15 | 0.15 | 94 | 1005.3 |
| 20260507000042 | 58 | 0 | 1.0 | 6.0 | 0.02 | 0.15 | 0.15 | 94 | 1005.2 |
| 20260506234550 | 58 | 0 | 1.0 | 5.0 | 0.05 | 0.15 | 0.15 | 95 | 1005.1 |
| 20260506233038 | 59 | 142 | 0.0 | 6.0 | 0.04 | 0.14 | 0.14 | 94 | 1005.2 |
| 20260506231539 | 59 | 0 | 0.0 | 7.0 | 0.04 | 0.14 | 0.14 | 94 | 1005.0 |
| 20260506230037 | 59 | 175 | 1.0 | 7.0 | 0.03 | 0.13 | 0.13 | 94 | 1005.0 |
| 20260506224536 | 59 | 0 | 0.0 | 5.0 | 0.01 | 0.10 | 0.10 | 94 | 1005.3 |
| 20260506223047 | 59 | 155 | 2.0 | 6.0 | 0.01 | 0.10 | 0.10 | 93 | 1005.3 |
| 20260506221539 | 59 | 0 | 0.0 | 6.0 | 0.01 | 0.10 | 0.10 | 93 | 1005.3 |
| 20260506220038 | 60 | 184 | 0.0 | 4.0 | 0.01 | 0.10 | 0.10 | 93 | 1005.5 |
| 20260506214540 | 59 | 15 | 1.0 | 8.0 | 0.01 | 0.09 | 0.09 | 92 | 1005.5 |
| 20260506213042 | 59 | 188 | 0.0 | 6.0 | 0.01 | 0.09 | 0.09 | 92 | 1005.8 |
| 20260506211543 | 59 | 0 | 1.0 | 7.0 | 0.01 | 0.09 | 0.09 | 92 | 1005.9 |
| 20260506210041 | 59 | 226 | 1.0 | 10.0 | 0.02 | 0.09 | 0.09 | 92 | 1005.9 |
| 20260506204550 | 59 | 63 | 2.0 | 8.0 | 0.02 | 0.08 | 0.08 | 92 | 1006.1 |
| 20260506203037 | 60 | 212 | 1.0 | 15.0 | 0.02 | 0.08 | 0.08 | 92 | 1006.2 |
| 20260506201539 | 60 | 256 | 2.0 | 8.0 | 0.04 | 0.08 | 0.08 | 91 | 1006.1 |
| 20260506200057 | 60 | 102 | 2.0 | 10.0 | 0.05 | 0.07 | 0.07 | 90 | 1006.1 |
| 20260506194548 | 61 | 0 | 2.0 | 6.0 | 0.05 | 0.06 | 0.06 | 90 | 1006.2 |
| 20260506193038 | 62 | 0 | 1.0 | 8.0 | 0.06 | 0.06 | 0.06 | 88 | 1006.2 |
| 20260506191538 | 63 | 0 | 0.0 | 3.0 | 0.03 | 0.03 | 0.03 | 86 | 1006.1 |
| 20260506190039 | 64 | 140 | 0.0 | 8.0 | 0.02 | 0.02 | 0.02 | 83 | 1006.1 |
| 20260506184536 | 65 | 190 | 3.0 | 16.0 | 0.01 | 0.01 | 0.01 | 78 | 1006.4 |
| 20260506183057 | 67 | 193 | 1.0 | 8.0 | 0.00 | 0.00 | 0.00 | 76 | 1006.7 |
| 20260506181544 | 69 | 227 | 4.0 | 13.0 | 0.00 | 0.00 | 0.00 | 68 | 1006.5 |
| 20260506180041 | 70 | 273 | 3.0 | 27.0 | 0.00 | 0.00 | 0.00 | 63 | 1006.6 |
| 20260506174538 | 71 | 191 | 6.0 | 20.0 | 0.00 | 0.00 | 0.00 | 60 | 1006.5 |
| 20260506173037 | 72 | 177 | 6.0 | 18.0 | 0.00 | 0.00 | 0.00 | 58 | 1006.6 |
| 20260506171546 | 73 | 238 | 3.0 | 14.0 | 0.00 | 0.00 | 0.00 | 59 | 1006.8 |
| 20260506170046 | 74 | 184 | 2.0 | 16.0 | 0.00 | 0.00 | 0.00 | 57 | 1006.8 |
| 20260506164547 | 72 | 217 | 1.0 | 11.0 | 0.00 | 0.00 | 0.00 | 62 | 1006.9 |
| 20260506163038 | 71 | 216 | 4.0 | 12.0 | 0.00 | 0.00 | 0.00 | 61 | 1007.2 |
| 20260506161545 | 71 | 297 | 2.0 | 14.0 | 0.00 | 0.00 | 0.00 | 62 | 1007.3 |
| 20260506160044 | 71 | 313 | 2.0 | 10.0 | 0.00 | 0.00 | 0.00 | 64 | 1007.7 |
| 20260506154537 | 70 | 179 | 1.0 | 8.0 | 0.00 | 0.00 | 0.00 | 65 | 1007.9 |
| 20260506153040 | 71 | 214 | 2.0 | 11.0 | 0.00 | 0.00 | 0.00 | 65 | 1008.0 |
| 20260506151558 | 71 | 284 | 3.0 | 14.0 | 0.00 | 0.00 | 0.00 | 62 | 1008.2 |
| 20260506150039 | 71 | 248 | 1.0 | 10.0 | 0.00 | 0.00 | 0.00 | 67 | 1008.1 |
| 20260506144538 | 69 | 200 | 3.0 | 16.0 | 0.00 | 0.00 | 0.00 | 68 | 1008.5 |
| 20260506143045 | 69 | 201 | 2.0 | 10.0 | 0.00 | 0.00 | 0.00 | 68 | 1008.4 |
| 20260506141539 | 68 | 219 | 1.0 | 10.0 | 0.00 | 0.00 | 0.00 | 70 | 1008.3 |
| 20260506140040 | 68 | 298 | 3.0 | 11.0 | 0.00 | 0.00 | 0.00 | 70 | 1008.3 |
| 20260506134538 | 68 | 127 | 3.0 | 12.0 | 0.00 | 0.00 | 0.00 | 70 | 1008.5 |
| 20260506133040 | 67 | 238 | 2.0 | 15.0 | 0.00 | 0.00 | 0.00 | 72 | 1008.7 |
| 20260506131536 | 66 | 221 | 3.0 | 12.0 | 0.00 | 0.00 | 0.00 | 74 | 1009.1 |
| 20260506130049 | 65 | 239 | 3.0 | 14.0 | 0.00 | 0.00 | 0.00 | 74 | 1009.0 |
| 20260506124540 | 65 | 200 | 4.0 | 12.0 | 0.00 | 0.00 | 0.00 | 74 | 1009.1 |
| 20260506123039 | 64 | 246 | 1.0 | 10.0 | 0.00 | 0.00 | 0.00 | 78 | 1008.8 |
| 20260506121540 | 63 | 122 | 2.0 | 9.0 | 0.00 | 0.00 | 0.00 | 79 | 1009.1 |
| 20260506120041 | 62 | 0 | 3.0 | 8.0 | 0.00 | 0.00 | 0.00 | 79 | 1008.9 |
| 20260506114545 | 61 | 194 | 1.0 | 8.0 | 0.00 | 0.00 | 0.00 | 82 | 1009.2 |
| 20260506113041 | 61 | 148 | 2.0 | 8.0 | 0.00 | 0.00 | 0.00 | 81 | 1009.4 |
| 20260506111541 | 60 | 199 | 1.0 | 4.0 | 0.00 | 0.00 | 0.00 | 82 | 1009.6 |
| 20260506110046 | 60 | 195 | 1.0 | 10.0 | 0.00 | 0.00 | 0.00 | 83 | 1009.4 |
| 20260506104536 | 59 | 0 | 1.0 | 5.0 | 0.00 | 0.00 | 0.00 | 85 | 1009.4 |
| 20260506103036 | 58 | 188 | 0.0 | 3.0 | 0.00 | 0.00 | 0.00 | 85 | 1009.3 |
| 20260506101549 | 58 | 0 | 0.0 | 5.0 | 0.00 | 0.00 | 0.00 | 85 | 1009.4 |
| 20260506100039 | 58 | 0 | 0.0 | 2.0 | 0.00 | 0.00 | 0.00 | 84 | 1009.4 |
| 20260506094547 | 58 | 199 | 1.0 | 7.0 | 0.00 | 0.00 | 0.00 | 84 | 1009.3 |
| 20260506093037 | 58 | 0 | 0.0 | 3.0 | 0.00 | 0.00 | 0.00 | 83 | 1009.0 |
| 20260506091536 | 58 | 0 | 0.0 | 4.0 | 0.00 | 0.00 | 0.00 | 82 | 1009.3 |
| 20260506090044 | 59 | 0 | 0.0 | 4.0 | 0.00 | 0.00 | 0.00 | 82 | 1009.2 |
| 20260506084537 | 59 | 138 | 0.0 | 3.0 | 0.00 | 0.00 | 0.00 | 81 | 1009.4 |
| 20260506083041 | 59 | 215 | 1.0 | 8.0 | 0.00 | 0.00 | 0.00 | 80 | 1009.4 |
| 20260506081541 | 60 | 197 | 0.0 | 3.0 | 0.00 | 0.00 | 0.00 | 79 | 1009.4 |
| 20260506073046 | 61 | 201 | 0.0 | 6.0 | 0.00 | 0.00 | 0.00 | 76 | 1009.1 |
| 20260506071557 | 62 | 159 | 1.0 | 8.0 | 0.00 | 0.00 | 0.00 | 75 | 1009.0 |
| 20260506061536 | 63 | 179 | 2.0 | 8.0 | 0.00 | 0.00 | 0.00 | 72 | 1008.8 |
| 20260506044541 | 62 | 129 | 1.0 | 3.0 | 0.00 | 0.00 | 0.00 | 70 | 1009.2 |
| 20260506043040 | 62 | 0 | 0.0 | 5.0 | 0.00 | 0.00 | 0.00 | 71 | 1009.2 |
| 20260506041553 | 62 | 260 | 1.0 | 7.0 | 0.00 | 0.00 | 0.00 | 70 | 1009.2 |